Погода в Черняховске

Погода в Черняховске : погода сейчас, прогноз погоды и архив. Всё, что Вы хотите узнать о погоде в Черняховске!

Хотите узнать прогноз погоды в Черняховске? Тогда Вам сюда: Погода в Черняховске

Поиск расширенной информации на нашем сайте:

Другие новости

Новости СМИ2

Главная страница сайта

Новости сайта

03.07.2017

Напоминаем, что на нашем специализированном сайте Метеоцентр.Азия вы можете получить высокодетализированные автоматические прогнозы погоды по пунктам России, СНГ и мира в авиационном формате (включающие направление и скорость ветра, видимость, явления погоды, количество и форму облачности, нижнюю и верхнюю границу облачности).


Погода в Черняховске - сегодня

Время (UTC), дата Ветер
(°,м/с) 
Видим.   Явления Облачность Т
(°С)
Тd
(°С)
f(%) Тe
(°С)
Pmin
(гПа)
dP
(гПа)
Po
(мм)
O2
(г/м3)
Тmin Tmax R s Состояние
почвы
12 20.10.17 100 (В) 1-4{05}  20000 м    9/9 600 м 
[Cu Sc]
+12.6 +8.9 78 +14  1019.7  -0.8  762  292           
15 20.10.17 130 (ЮВ) 2-4{06}  20000 м    10/10 300 м 
[Sc]
+12.2 +7.9 75 +13  1019.1  -0.6  761  292           
18 20.10.17 120 (ЮВ) 1-3{05}  10 км    10/10 300 м 
[Sc]
+10.9 +8.1 83 +12  1018.7  -0.3  761  294    +13.2       
21 20.10.17 100 (В) 2-3{04}  10 км    9/9 300 м 
[Sc]
+9.6 +7.9 89 +10  1018.4  -0.3  761  295           
00 21.10.17 120 (ЮВ) 2-4{05}  10 км    10/10 300 м 
[Sc]
+9.8 +8 89 +10  1017.6  -0.8  760  294           
03 21.10.17 090 (В) 1-3{04}  10 км    10/10 300 м 
[Sc]
+10 +8.4 90 +11  1016.4  -1.2  759  294  +9.5         
06 21.10.17 120 (ЮВ) 2-5{05}  10 км    10/10 300 м 
[Sc]
+9.6 +7.8 89 +10  1015.8  -0.6  759  294  +9.5        влажная 
09 21.10.17 090 (В) 2-6{06}  10 км  слаб. ливневой дождь  10/10 300 м кучево-дожд. 
[Cb cap]
+9.1 +7.1 87 +9  1015.8  759  295           
12 21.10.17 080 (В) 2-5{07}  4000 м  ливневой дождь  10/10 300 м кучево-дожд. 
[Cb cap]
+7.6 +6.9 95 +8  1015.9  759  296           
15 21.10.17 070 (В) 3-8{08}  4000 м  слаб. дождь{ливн. осадки}  10/10 300 м 
[Frnb|Ns]
+6.7 +6 95 +6  1016.8  0.8  760  298         
18 21.10.17 100 (В) 2-7{08}  4000 м  дымка{ливн. осадки, дождь}  10/10 300 м 
[Cu Sc]
+6.1 +5.5 96 +6  1018.4  1.6  761  299    +9.8     
21 21.10.17 110 (В) 2-6{07}  4000 м  дымка  10/10 300 м 
[Sc]
+6.3 +4.9 91 +6  1019.1  0.7  761  299           
00 22.10.17 130 (ЮВ) 2-4{07}  4000 м  дымка  10/10 300 м 
[Sc]
+6 +4.1 88 +6  1019.5  0.4  762  300           
03 22.10.17 130 (ЮВ) 2-5{07}  4000 м  дымка  9/9 300 м 
[Cu Sc]
+5.4 +3.2 86 +5  1018.9  -0.6  761  300  +5.4    0.0     
06 22.10.17 140 (ЮВ) 2-5{06}  10 км    10/10 300 м 
[Sc]
+5.2 +2.8 84 +5  1018.9  761  301  +5.1        влажная 
09 22.10.17 150 (ЮВ) 3-7{09}  10 км    10/10 300 м 
[Cu Sc]
+6.1 +2.7 79 +5  1018.4  -0.5  761  299           
12 22.10.17 140 (ЮВ) 3-7{08}  10 км    10/10 300 м 
[Cu Sc]
+6.3 +3 79 +5  1017.4  -1  760  299           
15 22.10.17 130 (ЮВ) 2-4{07}  10 км    10/10 300 м 
[Sc]
+5.9 +3.3 83 +6  1016.1  -1.3  759  299           
18 22.10.17 140 (ЮВ) 1-3{05}  4000 м  в посл. час дождь  10/10 300 м 
[Cu Sc]
+5.3 +4.4 94 +6  1015.7  -0.4  759  299    +6.5  0.4     
21 22.10.17 130 (ЮВ) 2-4{04}  4000 м  слаб. дождь  10/10 300 м 
[Frnb|Ns]
+5 +4.4 96 +5  1015  -0.7  758  299           
00 23.10.17 110 (В) 2-4{05}  4000 м  слаб. дождь  10/10 300 м 
[Frnb|Ns]
+4.9 +4.4 97 +5  1014.1  -0.9  758  299           
03 23.10.17 110 (В) 2-4{05}  4000 м  дождь  10/10 300 м 
[Frnb|Ns]
+4.8 +4.3 97 +4  1013.7  -0.4  757  299  +4.7       
06 23.10.17 110 (В) 2-5{06}  4000 м  дождь  10/10 300 м 
[Frnb|Ns]
+4.7 +4.3 97 +4  1014.2  0.5  758  299  +2.4      мокрая 
09 23.10.17 090 (В) 2-5{06}  4000 м  дождь  10/10 300 м 
[Frnb|Ns]
+4.1 +3.7 97 +4  1015.6  1.3  759  301           
12 23.10.17 090 (В) 2-5{06}  2000 м  дождь{морось}  10/10 300 м 
[St]
+3.8 +3.3 97 +3  1016.8  1.2  760  301           
Время (UTC), дата Ветер
(°,м/с) 
Видим.   Явления Облачность Т
(°С)
Тd
(°С)
f(%) Тe
(°С)
Pmin
(гПа)
dP
(гПа)
Po
(мм)
O2
(г/м3)
Тmin Tmax R s Состояние
почвы

Для получения пояснительной информации подведите курсор к названию столбца.

ПОГОДА в Черняховске - архив

Всё, что Вы хотите узнать о погоде в Черняховске - удобно и подробно!

Выберите нужную дату (начиная с 1 января 2015* года) и нажмите кнопку "Найти".
Будут отображены архивные сводки погоды по пункту Черняховск, начиная с указанной даты.


Отображать данные в формате CSV (для использования в таблицах Excel)


Внимание! Наш архив погоды предназначен исключительно для личного некоммерческого использования в познавательных целях. Если Вам необходимы официальные справки о состоянии погоды (для производственных, юридических, коммерческих и т.п. целей), обращайтесь в органы Росгидромета.

*Примечание: данная дата относится к архиву по метеостанциям СССР (Россия, СНГ, Балтия).
Архив по метеостанциям Зарубежной Европы и Азии (кроме Китая) хранится 10 дней, по другим регионам земного шара (Китай, Африка, Америка, Австралия, Океания) - 1 день.

Черняховск - район местоположения метеостанции


Название, широта, долгота, высота метеостанции:
Черняховск 54.8°ш. 21.7°д. 25 м над ур. моря [Российская Федерация]

Дополнительная информация

В oтличие oт бoльшинства пoгoдных сайтoв мы публикуем пoдрoбную метеoинфoрмацию в детальнoм прoфессиoнальнoм фoрмате.

Характеристики температуры и влажнoсти вoздуха измеряются на высoте 2 м в тени вдали oт зданий и деревьев.
Скoрoсть ветра измеряется на высoте 10 м (на урoвне рoста челoвека скoрoсть ветра ниже в 1.5-2 раза). Если метеoстанция нахoдится в гoрoде или в лесу, тo скoрoсть ветра занижена на 2-4 м/с пo сравнению с oткрытым местoм. Скoрoсть ветра над акватoриями крупных рек и oзёр, а также на вершинах хoлмoв на 2-5 м/с выше, чем в oбычных услoвиях.
Атмoсфернoе давление в разных тoчках местнoсти мoжет значительнo oтличаться oт давления на метеoстанции, в зависимoсти oт услoвий рельефа (при пoдъёме на 10 м давление пoнижается примернo на 1 мм рт.ст.).